Location: Unspecified
(0.0000°N, 0.0000°E)
Time: 11:23:45
(UTC+02:00)

Orbus 21S - Visible Passes

Search period start: 29 March 2015 00:00
Search period end: 08 April 2015 01:00
Orbit: 273 x 33428 km, 24.3° (Epoch: 27 March)

Date Brightness Start Highest point End Pass type
(mag) Time Alt. Az. Time Alt. Az. Time Alt. Az.
29 Mar 6.7 14:26:44 10° WSW 23:14:16 39° NNW 23:23:34 28° NNE visible
31 Mar 6.8 15:32:15 10° WSW 00:17:58 27° NNW 00:19:32 26° NNW visible
02 Apr 4.1 06:03:57 32° SE 06:03:57 32° SE 06:08:50 10° ESE visible
02 Apr 7.2 16:43:29 10° WSW 01:15:08 16° NW 01:15:08 16° NW visible
03 Apr 7.4 11:38:10 10° SW 19:50:24 70° NNW 20:45:26 10° NE visible
04 Apr 4.1 06:59:15 21° SW 07:01:27 33° S 07:14:54 10° SE visible
04 Apr 7.6 18:14:55 10° WSW 02:10:25 - NW 02:10:25 - NW visible
05 Apr 7.0 12:37:49 10° SW 21:16:05 55° NNW 21:43:52 10° NE visible
07 Apr 6.7 13:38:23 10° WSW 22:25:04 42° NNW 22:39:18 19° NNE visible
